Regional Weather Roundup
Issued by NWS Sioux Falls, SD

Home | Current Version | Previous Version | Graphics & Text | Print | Product List | Glossary On
Versions: 1 2 3 4 5 6 7 8 9 10 11 12 13 14 15 16 17 18 19 20 21 22 23 24 25 26 27 28 29 30 31 32 33 34 35 36 37 38 39 40 41 42 43 44 45 46 47 48 49 50
000
ASUS43 KFSD 100610
RWRFSD

WEATHER ROUNDUP FOR SE SOUTH DAKOTA/SW MINNESOTA/NW IOWA
NATIONAL WEATHER SERVICE SIOUX FALLS SD
1200 AM CST WED FEB 10 2016

NOTE: "FAIR" INDICATES FEW OR NO CLOUDS BELOW 12,000 FEET WITH NO
SIGNIFICANT WEATHER AND OR OBSTRUCTIONS TO VISIBILITY.


SDZ038>040-050-052>070-100700-
SOUTHEAST SOUTH DAKOTA

CITY           SKY/WX    TMP DP  RH WIND       PRES   REMARKS
BROOKINGS      CLOUDY    17  10  74 E5        30.09F WCI  10
CHAMBERLAIN    CLOUDY    29  24  81 CALM      30.05F
6HR MIN TEMP:  28; 6HR MAX TEMP:  31;

HURON          CLOUDY    27  19  72 S9        30.07F WCI  18
6HR MIN TEMP:  26; 6HR MAX TEMP:  28;

MADISON        CLOUDY    18  18 100 SE6       30.08F WCI   9
MITCHELL       CLOUDY    27  19  72 S9        30.08F WCI  18
6HR MIN TEMP:  27; 6HR MAX TEMP:  28;

SIOUX FALLS    CLOUDY    20  11  68 SE5       30.12F WCI  13
6HR MIN TEMP:  19; 6HR MAX TEMP:  23;

WINNER         CLOUDY    37  25  61 CALM      30.04F
YANKTON        CLOUDY    23  16  74 SE6       30.13F WCI  16
$$

MNZ071-072-080-081-089-090-097-098-100700-
SOUTHWEST MINNESOTA

CITY           SKY/WX    TMP DP  RH WIND       PRES   REMARKS
FAIRMONT       CLOUDY    10   3  72 NW9       30.12F WCI  -2
JACKSON        CLOUDY    18   9  68 NW8       30.12F WCI   7
LUVERNE        CLOUDY    21  14  73 CALM      30.12F
MARSHALL       CLOUDY    14   8  77 N10       30.15F WCI   1
6HR MIN TEMP:  14; 6HR MAX TEMP:  18;

MONTEVIDEO     CLOUDY    12   7  79 N6        30.19R WCI   3
PIPESTONE      CLOUDY    18   7  62 NE3       30.09F
REDWOOD FALLS  CLOUDY    13   4  67 N10       30.16S WCI   0
TRACY          CLOUDY    16   9  76 N7        30.13F WCI   6
WINDOM         CLOUDY    14   9  79 NW9       30.12F WCI   2
WORTHINGTON    CLOUDY    16   9  73 N6        30.12F WCI   7
$$

IAZ001>003-012>014-020>022-031-032-NEZ013-014-SDZ071-100700-
NORTHWEST IOWA

CITY           SKY/WX    TMP DP  RH WIND       PRES   REMARKS
CHEROKEE       CLOUDY    21  14  73 CALM      30.15F
DENISON        CLOUDY    18  12  79 CALM      30.15F
ESTHERVILLE    CLOUDY    15   9  76 N10       30.12F WCI   2
LE MARS        MOCLDY    19  16  86 S3        30.17F
ORANGE CITY    PTCLDY    18  16  93 CALM      30.14S
SHELDON        CLOUDY    19  14  79 CALM      30.12F
SIOUX CITY     CLOUDY    20  14  77 E5        30.17F WCI  13
6HR MIN TEMP:  17; 6HR MAX TEMP:  25;

SPENCER        CLOUDY    19  10  68 NW8       30.13F WCI   9
6HR MIN TEMP:  18; 6HR MAX TEMP:  19;

STORM LAKE     CLOUDY    19  14  79 NW7       30.13F WCI  10
$$

ABBREVIATIONS USED IN REMARKS
   TC - TEMPERATURE IN CELSIUS
  WCI - WIND CHILL INDEX
   HX - HEAT INDEX
  VSB - VISIBILITY




USA.gov is the U.S. government's official web portal to all federal, state and local government web resources and services.